Weather History for Svalbard, Norway

Change the Weather History Date:

Sunday, May 19, 2013

  Actual Average Record
Temperature  
Mean Temperature 32 °F -  
Max Temperature 34 °F 35 °F 37 °F (2003)
Min Temperature 30 °F 30 °F 17 °F (1998)
Degree Days  
Heating Degree Days 33    
Moisture  
Dew Point 24 °F    
Average Humidity 70    
Maximum Humidity 80    
Minimum Humidity 54    
Precipitation  
Precipitation 0.00 in 0.01 in - ()
Sea Level Pressure  
Sea Level Pressure 30.25 in    
Wind  
Wind Speed 9 mph ()    
Max Wind Speed 14 mph    
Max Gust Speed -    
Visibility 6.2 miles    
Events      
Averages and records for this station are not official NWS values.
T = Trace of Precipitation, MM = Missing Value Source: Averaged Metar Reports

Daily Weather History Graph

Daily Weather History Graph

Search for Another Location

Airport:

Trip Planner

Search our weather history database for the weather conditions in past years. The results will help you decide how hot, cold, wet, or windy it might be!

Date:

Astronomy

Jan. 01, 1970 Rise Set
Actual Time Sun does not rise Sun does not rise
Civil Twilight Sun does not rise Sun does not rise
Nautical Twilight Sun does not rise Sun does not rise
Astronomical Twilight Sun does not rise Sun does not rise
Moon 1:23 PM CEST (5/19) 2:57 AM CEST (5/19)
Length of Visible Light 24h 00m
Length of Day
24h 00m
Waxing Gibbous, 62% of the Moon is Illuminated
May 19
Waxing Gibbous
May 25
Full
May 31
Last Quarter
Jun 8
New
Jun 16
First Quarter

Hourly Weather History & Observations

Time (CEST) Temp. Windchill Dew Point Humidity Pressure Visibility Wind Dir Wind Speed Gust Speed Precip Events Conditions
12:50 AM 33.8 °F 26.4 °F 24.8 °F 70% 30.09 in 6.2 mi WSW 9.2 mph - N/A   Scattered Clouds
1:50 AM 32.0 °F 22.5 °F 24.8 °F 75% 30.12 in 6.2 mi WSW 12.7 mph - N/A   Partly Cloudy
2:00 AM 33 °F - 24 °F 59% 30.15 in 47 mi WSW 11.2 mph - -   Partly Cloudy
2:50 AM 32.0 °F 22.5 °F 23.0 °F 69% 30.15 in 6.2 mi WSW 12.7 mph - N/A   Scattered Clouds
3:50 AM 32.0 °F 24.8 °F 24.8 °F 75% 30.15 in 6.2 mi West 8.1 mph - N/A   Scattered Clouds
4:50 AM 32.0 °F 22.1 °F 24.8 °F 75% 30.18 in 6.2 mi WSW 13.8 mph - N/A   Mostly Cloudy
5:50 AM 30.2 °F 23.4 °F 23.0 °F 75% 30.21 in 6.2 mi WSW 6.9 mph - N/A   Mostly Cloudy
6:50 AM 30.2 °F 21.3 °F 21.2 °F 69% 30.21 in 6.2 mi NW 10.4 mph - N/A   Mostly Cloudy
7:50 AM 32.0 °F 23.6 °F 23.0 °F 69% 30.24 in 6.2 mi WSW 10.4 mph - N/A   Mostly Cloudy
8:00 AM 31 °F - 24 °F 65% 30.25 in 34 mi WSW 11.2 mph - -   Partly Cloudy
8:50 AM 32.0 °F 23.6 °F 23.0 °F 69% 30.24 in 6.2 mi WSW 10.4 mph - N/A   Mostly Cloudy
9:50 AM 32.0 °F 23.0 °F 23.0 °F 69% 30.27 in 6.2 mi WSW 11.5 mph - N/A   Mostly Cloudy
10:50 AM 32.0 °F 22.5 °F 23.0 °F 69% 30.27 in 6.2 mi WSW 12.7 mph - N/A   Mostly Cloudy
11:50 AM 33.8 °F 25.3 °F 21.2 °F 60% 30.27 in 6.2 mi WSW 11.5 mph - N/A   Mostly Cloudy
12:50 PM 33.8 °F 25.8 °F 23.0 °F 65% 30.30 in 6.2 mi SW 10.4 mph - N/A   Mostly Cloudy
1:50 PM 33.8 °F 25.3 °F 23.0 °F 65% 30.30 in 6.2 mi WSW 11.5 mph - N/A   Overcast
2:00 PM 34 °F - 23 °F 54% 30.31 in 47 mi WSW 13.4 mph - -   Partly Cloudy
2:50 PM 33.8 °F 26.4 °F 24.8 °F 70% 30.30 in 6.2 mi WSW 9.2 mph - N/A   Overcast
3:50 PM 33.8 °F 26.4 °F 24.8 °F 70% 30.30 in 6.2 mi WSW 9.2 mph - N/A   Mostly Cloudy
4:50 PM 33.8 °F 27.7 °F 24.8 °F 70% 30.30 in 6.2 mi WSW 6.9 mph - N/A   Mostly Cloudy
5:50 PM 33.8 °F 28.6 °F 26.6 °F 75% 30.30 in 6.2 mi West 5.8 mph - N/A   Mostly Cloudy
6:50 PM 33.8 °F 27.7 °F 26.6 °F 75% 30.30 in 6.2 mi West 6.9 mph - N/A   Mostly Cloudy
7:50 PM 32.0 °F 24.8 °F 26.6 °F 80% 30.30 in 6.2 mi West 8.1 mph - N/A   Mostly Cloudy
8:00 PM 33 °F - 28 °F 73% 30.31 in 47 mi West 6.7 mph - -   Partly Cloudy
8:50 PM 33.8 °F 28.6 °F 26.6 °F 75% 30.30 in 6.2 mi West 5.8 mph - N/A   Mostly Cloudy
9:50 PM 33.8 °F 26.4 °F 24.8 °F 70% 30.30 in 6.2 mi WSW 9.2 mph - N/A   Mostly Cloudy
10:50 PM 33.8 °F 28.6 °F 24.8 °F 70% 30.27 in 6.2 mi WSW 5.8 mph - N/A   Mostly Cloudy
11:50 PM 33.8 °F - 26.6 °F 75% 30.27 in 6.2 mi Variable 2.3 mph - N/A   Mostly Cloudy